Terminal Aerodrome Forecast
Issued by NWS Blacksburg, VA

Current Version | Previous Version | Graphics & Text | Print | Product List | Glossary On
Versions: 1 2 3 4 5 6 7 8 9 10 11 12 13 14 15 16 17 18 19 20 21 22 23 24 25 26 27 28 29 30 31 32 33 34 35 36 37 38 39 40 41 42 43 44 45
000
FTUS41 KRNK 182340
TAFBLF
TAF
KBLF 182340Z 1900/1924 VRB03KT P6SM BKN050
     FM190600 12004KT P6SM BKN035
     FM191000 12006KT 4SM BR SCT004 OVC013
      TEMPO 1910/1913 2SM -DZ BR OVC004
     FM191500 13010G16KT P6SM OVC015=

USA.gov is the U.S. government's official web portal to all federal, state and local government web resources and services.